This is the latest recevied weather packets stored in our database for station/object KC1BRV. If no packets are shown the sender has not sent any weather packets the latest 1 day(s).
| Time | Temp. | Humidity | Pressure | Rain* | Wind** | Luminosity | Snow |
|---|---|---|---|---|---|---|---|
| 1778010188 | 21.67° C | 52% | 1010.2 hPa | 0 mm | 0.89 m/s, 87° | 507 W/m² | - |
| 1778009882 | 21.67° C | 51% | 1010.3 hPa | 0 mm | 0.45 m/s, 124° | 518 W/m² | - |
| 1778009581 | 21.67° C | 51% | 1010.5 hPa | 0 mm | 2.24 m/s, 266° | 532 W/m² | - |
| 1778009279 | 21.67° C | 52% | 1010.4 hPa | 0 mm | 0.45 m/s, 44° | 541 W/m² | - |
| 1778008976 | 21.67° C | 52% | 1010.6 hPa | 0 mm | 0.89 m/s, 265° | 555 W/m² | - |
| 1778008674 | 22.22° C | 50% | 1010.6 hPa | 0 mm | 1.79 m/s, 43° | 566 W/m² | - |
| 1778008372 | 21.67° C | 52% | 1010.5 hPa | 0 mm | 0.89 m/s, 168° | 572 W/m² | - |
| 1778008068 | 22.22° C | 51% | 1010.5 hPa | 0 mm | 0.89 m/s, 97° | 584 W/m² | - |
| 1778007763 | 22.22° C | 51% | 1010.6 hPa | 0 mm | 0.89 m/s, 335° | 598 W/m² | - |
| 1778007460 | 22.22° C | 51% | 1010.8 hPa | 0 mm | 0.89 m/s, 185° | 604 W/m² | - |
| 1778007157 | 22.78° C | 50% | 1010.5 hPa | 0 mm | 1.79 m/s, 280° | 613 W/m² | - |
| 1778006852 | 22.78° C | 51% | 1010.4 hPa | 0 mm | 0 m/s | 624 W/m² | - |
| 1778006550 | 23.33° C | 49% | 1010.6 hPa | 0 mm | 0.89 m/s, 127° | 634 W/m² | - |
| 1778006247 | 23.33° C | 50% | 1010.6 hPa | 0 mm | 0.45 m/s, 147° | 640 W/m² | - |
| 1778005951 | 23.89° C | 49% | 1010.8 hPa | 0 mm | 0.45 m/s, 291° | 647 W/m² | - |
| 1778005640 | 23.33° C | 48% | 1010.9 hPa | 0 mm | 0.45 m/s, 42° | 655 W/m² | - |
| 1778005338 | 23.89° C | 47% | 1010.7 hPa | 0 mm | 0.89 m/s, 87° | 666 W/m² | - |
| 1778005034 | 23.89° C | 48% | 1010.7 hPa | 0 mm | 0.45 m/s, 127° | 673 W/m² | - |
| 1778004732 | 23.89° C | 47% | 1010.6 hPa | 0 mm | 1.79 m/s, 91° | 681 W/m² | - |
| 1778004428 | 23.89° C | 46% | 1010.8 hPa | 0 mm | 0.45 m/s, 161° | 689 W/m² | - |
| 1778004124 | 23.89° C | 47% | 1010.8 hPa | 0 mm | 0.89 m/s, 135° | 698 W/m² | - |
| 1778003820 | 23.89° C | 47% | 1010.7 hPa | 0 mm | 0.89 m/s, 150° | 701 W/m² | - |
| 1778003517 | 24.44° C | 46% | 1010.9 hPa | 0 mm | 0.45 m/s, 9° | 709 W/m² | - |
| 1778003214 | 23.89° C | 46% | 1010.9 hPa | 0 mm | 1.79 m/s, 129° | 716 W/m² | - |
| 1778002910 | 23.89° C | 46% | 1011 hPa | 0 mm | 4.02 m/s, 171° | 719 W/m² | - |
* Rain latest hour (hover to see other rain measurements)
** Current wind speed in m/s (hover to see current wind gust speed)